Weather Roundup
Issued by NWS Springfield, MO

Home | Current Version | Previous Version | Text Only | Print | Product List | Glossary On
Versions: 1 2 3 4 5 6 7 8 9 10 11 12 13 14 15 16 17 18 19 20 21 22 23 24 25 26 27 28 29 30 31 32 33 34 35 36 37 38 39 40 41 42 43 44 45 46 47 48 49 50
000
NZUS99 KSGF 020907
HRRSGF

HOURLY WEATHER
NATIONAL WEATHER SERVICE SPRINGFIELD MO
400 AM CDT THU JUL 02 2015

......SGF CWA......

CITY           SKY/WX    TMP DP  RH WIND       PRES   REMARKS
SPRINGFIELD    LGT RAIN  70  67  90 SE13      29.87F
JOPLIN         CLOUDY    75  69  81 SE5       29.81F
WEST PLAINS    RAIN      69  66  90 S10       29.90F
ROLLA          CLOUDY    67  66  97 S6        29.84F
OSAGE BEACH    CLOUDY    70  66  88 CALM      29.84R
BRANSON        TSTM      68  66  94 NE10G18   29.93R

......SURROUNDING SGF CWA......

CITY           SKY/WX    TMP DP  RH WIND       PRES   REMARKS
CHANUTE        CLEAR     73  70  90 E7        29.78F
PARSONS        CLEAR     76  71  85 S3        29.79F
COFFEYVILLE    CLEAR     81  69  67 SW9       29.77F
EMPORIA        PTCLDY    72  69  90 NE8       29.82S
ROGERS AR      CLOUDY    76  71  85 SW12G22   29.85F
SILOAM SPRINGS CLOUDY    77  66  69 SW15        N/A
HARRISON AR    LGT RAIN  77  70  79 N8        29.91R
NEAR YELLVILLE CLOUDY    75  72  88 N10       29.86R

......KANSAS AND MISSOURI......

CITY           SKY/WX    TMP DP  RH WIND       PRES   REMARKS
KANSAS CTY INT CLOUDY    73  70  90 NE12      29.85S
DOWNTOWN KC    CLOUDY    74  71  91 E8        29.84R
COLUMBIA       MOCLDY    70  69  97 E7        29.83F
SEDALIA        CLOUDY    72  69  90 E6        29.84F
ST JOSEPH      CLOUDY    72  68  87 NE7       29.87S
ST LOUIS       LGT RAIN  74  69  85 CALM      29.84F
SPIRIT OF STL  CLOUDY    72  71  97 CALM      29.83F
KIRKSVILLE     CLOUDY    67  64  90 NE8       29.90S FOG
WICHITA        MOCLDY    76  72  87 E3        29.84R
TOPEKA         CLEAR     73  70  90 NE6       29.84S
OLATHE         CLOUDY    71  69  93 NE12      29.83F

......TENNESSEE......

CITY           SKY/WX    TMP DP  RH WIND       PRES   REMARKS
MEMPHIS        LGT RAIN  79  72  79 SW8       29.90F
NASHVILLE      CLOUDY    71  71 100 S5        29.91S

......ARKANSAS.......

CITY           SKY/WX    TMP DP  RH WIND       PRES   REMARKS
FAYETTEVILLE   CLOUDY    77  70  79 SW15G23   29.86F
FT SMITH       MOCLDY    81  67  62 SW10      29.85R
LITTLE ROCK    CLOUDY    80  70  71 SW12G22   29.87F

......OKLAHOMA.......

CITY           SKY/WX    TMP DP  RH WIND       PRES   REMARKS
TULSA          PTCLDY    82  70  66 SW13G22   29.80F
PONCA CITY     PTCLDY    78  67  68 SW5       29.81F
MCALESTER      MOCLDY    79  69  71 SW15G25   29.89S
OKLAHOMA CITY  MOCLDY    77  68  73 SW12      29.88S

......IOWA............

CITY           SKY/WX    TMP DP  RH WIND       PRES   REMARKS
DES MOINES     CLEAR     60  55  83 E8        29.94F
QUAD CITIES    CLEAR     58  53  84 NE9       29.96F

......ILLINOIS........

CITY           SKY/WX    TMP DP  RH WIND       PRES   REMARKS
QUINCY         CLOUDY    67  64  90 E13       29.88S
CHICAGO        CLOUDY    54  51  90 NE10      29.98F



USA.gov is the U.S. government's official web portal to all federal, state and local government web resources and services.